Regional Weather Roundup
Issued by NWS

Home | Current Version | Previous Version | Graphics & Text | Print | Product List | Glossary On
Versions: 1 2 3 4 5 6 7 8 9 10 11 12 13 14 15 16 17 18 19 20 21 22 23 24 25 26 27 28 29 30 31 32 33 34 35 36 37 38 39 40 41 42 43 44 45 46 47 48 49 50
000
ASUS43 KOAX 240710
RWRNE

WEATHER ROUNDUP FOR NEBRASKA
NATIONAL WEATHER SERVICE OMAHA NE
200 AM CDT TUE APR 24 2018

NOTES: SATELLITE DATA IS BEING USED TO AUGMENT CLOUD COVER ABOVE
       12000 FEET.
       "FAIR" INDICATES FEW OR NO CLOUDS BELOW 12,000 FEET WITH NO
       SIGNIFICANT WEATHER AND/OR OBSTRUCTIONS TO VISIBILITY.


NEZ001>004-019>022-054>056-240800-
NEBRASKA PANHANDLE

CITY           SKY/WX    TMP DP  RH WIND       PRES   REMARKS
SCOTTSBLUFF    CLOUDY    38  34  85 NW24G36   30.31S WCI  27
ALLIANCE       CLOUDY    38  34  85 NW21G26   30.26R WCI  28
CHADRON        CLOUDY    39  34  82 NW16      30.30R WCI  30
GORDON         CLOUDY    39  36  89 NW21G28   30.25R WCI  29
KIMBALL        CLOUDY    36  33  89 N22G35    30.28S WCI  24
SIDNEY         CLOUDY    37  34  89 NW24G31   30.26R WCI  26
$$

NEZ057>060-069>072-079>082-240800-
SOUTHWEST NEBRASKA

CITY           SKY/WX    TMP DP  RH WIND       PRES   REMARKS
NORTH PLATTE   CLOUDY    52  43  71 S7        30.15S
IMPERIAL       CLOUDY    49  48  97 NW15G22   30.18R
LEXINGTON      CLOUDY    46  40  81 E3        30.14F
MCCOOK         CLOUDY    50  41  71 W3        30.15R
OGALLALA       CLOUDY    46  41  85 N26       30.19S
$$

NEZ005>010-023>029-035>040-094-240800-
NORTH CENTRAL NEBRASKA

CITY           SKY/WX    TMP DP  RH WIND       PRES   REMARKS
VALENTINE      LGT RAIN  48  44  86 W14       30.18R
AINSWORTH      LGT RAIN  53  49  87 NW14G21   30.16S
BROKEN BOW     CLOUDY    47  42  83 CALM      30.13S
O`NEILL        CLOUDY    58  38  46 SE8       30.13S
ORD            CLOUDY    48  42  80 CALM      30.12S
THEDFORD       CLOUDY    50  47  90 NW6       30.19S
$$

NEZ041-046>049-061>064-073>077-083>087-240800-
SOUTH CENTRAL NEBRASKA

CITY           SKY/WX    TMP DP  RH WIND       PRES   REMARKS
GRAND ISLAND   MOCLDY    51  42  71 CALM      30.15R
AURORA         CLOUDY    52  38  58 CALM      30.13S
HASTINGS       CLEAR     47  39  74 W3        30.15R
HEBRON         CLEAR     44  36  72 CALM      30.12S
HOLDREGE       CLOUDY    44  39  82 CALM      30.14R
KEARNEY        PTCLDY    47  40  76 VRB7      30.15R
YORK             N/A     52  30  43 CALM      30.13R
$$

NEZ011>018-030>034-042>045-240800-
NORTHEAST NEBRASKA

CITY           SKY/WX    TMP DP  RH WIND       PRES   REMARKS
NORFOLK        CLOUDY    52  40  63 SE7       30.14R
ALBION         CLOUDY    56  38  52 NE6       30.15R HAZE
BLAIR          CLEAR     52  37  56 NE8       30.13R
COLUMBUS       CLOUDY    52  35  52 NE5       30.15R
FREMONT        CLEAR     49  33  55 CALM      30.14R
TEKAMAH        CLEAR     42  36  79 NW8       30.14R
WAYNE          CLOUDY    49  43  80 N3        30.15R
$$

NEZ050>053-065>068-078-088>093-240800-
SOUTHEAST NEBRASKA

CITY           SKY/WX    TMP DP  RH WIND       PRES   REMARKS
LINCOLN        CLOUDY    42  33  70 N7        30.14R
OMAHA EPPLEY   PTCLDY    47  34  60 NW6       30.13R
BEATRICE       CLEAR     43  34  70 CALM      30.12R
FALLS CITY     CLEAR     54  29  38 CALM      30.09R
NEBRASKA CITY  CLEAR     51  32  48 N8        30.11R
PLATTSMOUTH    CLEAR     53  30  41 N3        30.12R
$$

NEZ044-045-051>053-067-240800-
OMAHA AREA

CITY           SKY/WX    TMP DP  RH WIND       PRES   REMARKS
OMAHA EPPLEY   PTCLDY    47  34  60 NW6       30.13R
BLAIR          CLEAR     52  37  56 NE8       30.13R
FREMONT        CLEAR     49  33  55 CALM      30.14R
MILLARD        CLEAR     55  36  48 CALM      30.13R
PLATTSMOUTH    CLEAR     53  30  41 N3        30.12R
WAHOO          FAIR      46  29  50 CALM      30.13R
$$



USA.gov is the U.S. government's official web portal to all federal, state and local government web resources and services.